Temp
7 7 7 7 7 7 7 7 7 7 7 7 7 7 7 7 7 7 7 8 8 8 9 9 9 9 10 10 10 9 9 9 9 9 10 10 10 10 10 10 10 10 10 10 11 11 11 11 11 11 11 11 11 11 11 11 11 11 11 11 11 11 11 11 11 11 11 11 11 11 11 11 11 11 11 12 12 12 12 12 12 13 13 13 13 13
6 6 6 6 6 6 6 6 6 6 6 6 6 6 6 6 6 7 7 7 8 8 8 9 9 9 9 9 9 9 9 9 9 9 9 9 9 9 9 9 9 9 10 10 10 10 10 10 10 10 11 11 11 11 11 11 11 11 11 11 11 11 11 11 11 11 11 11 11 11 11 11 11 12 12 12 12 12 12 12 12 12 12 12 12 12
5 5 5 5 5 6 6 6 6 6 6 6 6 6 6 6 6 6 7 7 7 8 8 8 8 8 9 9 8 8 8 8 8 8 8 8 9 9 9 9 9 9 10 10 10 10 10 10 10 10 10 10 10 10 10 10 10 11 11 11 11 11 11 11 11 11 11 11 11 11 11 11 11 11 11 11 11 11 12 12 12 12 12 12 12 12
5 5 5 5 5 5 5 5 5 5 6 6 6 6 6 6 6 6 6 7 7 7 7 7 8 8 8 8 8 8 8 8 8 8 8 8 8 9 9 9 9 9 9 9 9 10 10 10 10 10 10 10 10 10 10 10 11 11 11 11 11 11 11 11 11 11 11 11 11 11 11 11 11 11 11 11 11 11 11 12 12 12 12 12 12 12
4 5 5 5 5 5 5 5 5 5 5 5 5 5 6 6 6 6 6 7 7 7 7 7 7 7 7 7 7 8 8 8 8 8 8 8 8 8 8 8 9 9 9 9 9 9 10 10 10 10 10 10 10 10 10 11 11 11 11 11 11 11 11 11 11 11 11 11 11 11 11 11 11 11 11 11 11 11 11 11 12 12 12 12 12 12
4 4 4 5 5 5 5 5 5 5 5 5 5 5 5 6 6 6 6 6 6 7 7 7 7 7 7 7 8 8 8 8 8 8 8 8 8 8 8 8 9 9 9 9 9 9 9 10 10 10 10 10 10 10 10 10 11 11 11 11 11 11 11 11 11 11 11 11 11 11 11 11 11 11 11 11 11 11 11 11 11 12 12 12 12 12
4 4 4 4 4 4 4 4 5 5 5 5 5 5 5 5 6 6 6 6 6 6 6 6 7 7 7 8 8 8 8 8 8 8 8 8 8 8 8 8 9 9 9 9 9 9 9 9 9 10 10 10 10 10 10 10 10 11 11 11 11 11 11 11 11 11 11 11 11 11 11 11 11 11 11 11 11 11 11 11 11 11 11 12 12 12
3 3 3 4 4 4 4 4 4 4 4 5 5 5 5 5 5 5 5 6 6 6 6 6 7 7 7 8 8 8 7 7 7 7 8 8 8 8 8 8 8 9 9 9 9 9 9 9 9 9 9 10 10 10 10 10 10 10 10 10 10 10 11 11 11 11 11 11 11 11 11 11 11 11 11 11 11 11 11 11 11 11 11 11 12 12
3 3 3 3 3 4 4 4 4 4 4 4 4 4 4 5 5 5 5 5 6 6 6 6 7 7 7 7 7 7 7 7 7 7 7 8 8 8 8 8 8 8 8 8 8 9 9 9 9 9 9 10 10 10 10 10 10 10 10 10 10 10 10 10 10 10 10 10 10 11 11 11 11 11 11 11 11 11 11 11 11 11 11 11 11 11
2 2 3 3 3 4 4 4 4 4 4 3 3 3 4 4 4 5 5 5 5 6 6 6 6 6 6 6 6 6 6 7 7 7 7 7 8 8 8 8 8 8 8 8 8 8 8 9 9 9 9 9 10 10 10 10 10 10 10 10 10 10 10 10 10 10 10 10 10 10 10 10 10 10 10 10 10 11 11 11 11 11 11 11 11 11
2 2 3 3 3 3 3 3 3 3 3 3 3 3 3 4 4 5 5 5 5 5 5 6 6 6 6 6 6 6 6 6 7 7 7 7 7 7 7 7 7 7 8 8 8 8 8 9 9 9 9 9 9 10 10 10 10 10 10 10 10 10 10 10 10 10 10 10 10 10 10 10 10 10 10 10 10 10 11 11 11 11 11 11 11 11
2 2 2 2 3 3 3 3 3 3 3 3 3 3 4 4 4 4 4 5 5 5 5 5 5 5 5 5 5 6 6 6 6 7 7 7 6 6 7 7 7 7 8 8 8 8 8 8 9 9 9 9 9 9 9 9 9 10 10 10 10 10 10 10 10 10 10 10 10 10 10 10 10 10 10 10 10 10 10 10 11 11 11 11 11 11
2 2 2 2 2 2 2 3 2 2 2 3 3 4 4 4 4 4 4 4 4 4 4 4 5 5 5 5 5 5 6 6 6 6 6 6 6 6 7 7 7 7 7 7 7 7 8 8 8 8 9 9 9 9 9 9 9 9 10 10 10 10 10 10 10 10 10 10 10 10 10 10 10 10 10 10 10 10 10 10 10 10 11 11 11 11
2 2 2 2 2 2 2 2 2 2 3 3 3 3 3 3 3 3 3 3 4 4 4 4 4 4 5 5 5 5 5 6 6 6 6 6 6 6 6 6 6 6 7 7 7 7 7 7 7 8 8 8 8 9 9 9 9 9 9 9 10 10 10 10 10 10 10 10 10 10 9 9 9 9 9 10 10 10 10 10 10 10 10 11 11 11
2 2 2 2 2 2 2 2 2 2 3 3 3 3 3 3 3 3 3 3 3 4 4 4 4 5 5 5 5 5 5 6 6 6 6 6 6 6 6 6 6 6 7 7 7 7 7 7 7 7 8 8 8 8 8 8 9 9 9 9 9 9 9 9 9 9 9 9 9 9 9 9 9 9 9 9 10 10 10 10 10 10 10 10 10 11
2 2 2 2 2 2 2 2 2 2 2 2 2 2 2 2 3 3 3 3 3 3 4 4 4 5 5 5 5 5 5 5 5 5 5 5 6 6 6 6 6 6 6 6 6 7 7 7 7 7 7 8 8 8 8 8 8 8 9 9 9 9 9 9 9 9 8 8 9 9 9 9 9 9 9 9 9 10 10 10 10 10 10 10 10 10
1 1 1 1 2 2 2 2 2 2 2 2 2 2 2 2 2 2 3 3 3 3 3 3 4 4 5 5 5 5 5 4 4 4 5 5 6 6 6 6 6 6 6 6 6 6 6 6 7 7 7 8 8 8 8 8 8 8 8 8 8 8 8 8 8 8 8 8 8 8 8 8 8 8 8 9 9 9 10 10 10 10 10 10 10 10
1 1 1 1 1 1 1 2 1 1 2 2 2 2 2 2 2 2 2 2 2 2 3 3 3 4 4 5 5 5 5 4 4 5 5 6 6 6 6 6 6 6 6 6 6 6 6 6 7 7 7 7 7 7 8 8 8 8 8 8 8 8 8 8 8 8 8 8 8 8 8 8 8 8 8 8 9 9 9 10 10 10 10 10 10 10
1 1 1 1 1 1 1 1 1 1 1 1 1 1 1 1 1 1 2 2 2 2 3 3 3 3 4 4 4 5 5 5 5 5 5 5 6 6 5 5 6 6 6 6 6 6 6 6 6 6 7 7 7 7 7 7 8 8 8 8 8 8 8 8 8 8 8 8 8 8 8 8 8 8 8 8 8 9 9 9 10 10 10 10 10 10
0 1 1 1 1 1 1 1 1 1 1 1 1 1 1 1 1 1 1 2 2 2 2 3 3 3 3 4 4 4 4 4 4 4 5 5 5 5 5 5 5 6 6 6 6 6 6 6 6 7 7 7 7 7 7 7 7 7 8 8 8 8 7 7 7 7 7 7 7 7 7 7 8 8 8 8 8 9 9 9 9 10 10 10 10 10
0 0 0 0 0 0 0 0 1 1 0 0 0 0 1 1 1 1 2 2 2 2 2 2 3 3 3 3 4 4 3 3 4 4 4 4 5 5 5 5 5 6 6 6 6 6 6 6 6 6 6 6 6 7 7 7 7 7 7 7 7 7 7 7 7 7 7 7 7 7 7 7 7 7 8 8 8 8 9 9 9 10 10 10 10 10
-0 -0 -0 -0 -0 -0 -0 -0 -0 -0 -0 -0 0 0 1 1 1 1 1 1 1 2 2 2 2 2 2 2 3 3 3 3 3 3 3 4 4 5 5 5 5 5 5 6 6 6 6 6 6 6 6 6 7 7 7 7 7 7 7 7 7 7 7 6 6 6 6 6 6 6 6 7 7 7 7 8 8 8 9 9 9 10 10 10 10 10
-0 -0 -0 -0 -0 -0 -0 -0 -0 -0 -0 0 0 1 1 1 1 1 1 1 1 1 1 2 2 2 2 2 2 2 2 3 3 3 3 3 4 5 5 5 4 5 5 5 5 5 5 5 6 6 6 6 6 6 6 6 6 6 6 6 6 6 6 6 6 6 6 6 6 6 6 6 7 7 7 8 8 8 9 9 9 9 9 9 9 9
-0 -1 -1 -0 -0 -0 -0 -0 -0 -0 0 0 1 1 1 1 1 1 1 1 1 1 1 1 1 2 2 2 3 3 3 3 3 3 3 3 4 4 4 4 4 4 5 5 5 5 5 5 5 6 6 6 6 6 6 6 6 6 6 6 6 6 6 6 5 5 5 5 6 6 6 6 6 7 7 8 8 8 9 9 9 9 9 9 9 9
-1 -1 -1 -1 -0 -0 -0 -0 -0 0 0 1 1 1 1 1 0 0 0 0 0 1 1 1 1 2 2 3 3 3 3 3 3 3 3 3 3 3 3 3 4 4 5 5 5 5 5 5 5 5 5 5 5 5 5 5 5 6 6 6 6 5 5 5 5 5 5 5 5 5 6 6 6 6 7 7 8 8 8 8 8 8 9 9 9 9
-1 -1 -0 -0 -0 -0 -0 -0 0 0 1 1 1 1 0 0 0 0 0 1 1 1 1 1 1 2 2 2 3 3 3 3 3 3 2 2 3 3 3 3 4 4 4 5 5 5 5 4 4 4 4 4 4 5 5 5 5 5 5 5 5 5 5 5 5 5 5 5 5 5 5 6 6 6 6 7 7 7 7 8 8 8 8 8 9 9
-1 -1 -0 -0 -0 -0 -0 -0 0 0 1 1 1 0 0 -0 -0 0 1 1 1 1 1 1 1 2 2 2 3 3 3 3 2 2 2 2 2 2 3 3 3 3 4 4 4 4 4 4 4 4 4 4 4 4 5 5 5 5 5 4 4 5 5 5 5 5 5 5 5 5 5 5 6 6 6 6 7 7 7 7 7 8 8 8 9 9
-1 -1 -1 -1 -1 -0 -0 -0 -0 0 0 0 0 0 0 -0 -0 0 0 0 0 0 0 1 1 1 2 2 2 3 2 2 1 1 1 2 2 2 3 3 2 2 2 3 3 3 3 3 4 4 4 4 4 4 4 4 4 4 4 4 4 5 5 5 5 6 6 6 5 5 5 5 5 6 6 6 6 7 7 7 8 8 8 8 9 9
-1 -1 -1 -1 -1 -1 -1 -1 -0 -0 -0 -0 0 0 -0 -0 -1 -0 -0 -0 -0 0 0 1 1 1 1 2 2 2 1 1 1 1 1 1 2 2 2 2 2 2 2 2 3 3 4 4 4 3 3 3 3 3 3 4 4 4 4 4 4 4 5 5 5 6 6 6 6 6 5 5 6 6 6 6 6 7 7 8 8 8 8 8 8 8
-2 -2 -2 -2 -2 -1 -1 -1 -1 -1 -0 -0 -0 -0 -0 -1 -1 -1 -1 -1 -1 -0 0 1 1 1 1 1 1 1 1 1 1 1 0 1 1 1 2 1 2 2 2 2 3 3 4 4 3 3 3 2 2 2 3 3 3 3 4 3 4 4 4 5 6 6 6 6 6 6 6 6 6 6 6 7 7 7 8 7 7 7 6 6 6 6
-2 -2 -2 -2 -2 -2 -2 -1 -1 -1 -1 -0 -0 -0 -0 -1 -1 -1 -1 -1 -1 -1 -0 0 0 0 0 0 1 1 1 1 1 0 -0 -0 0 1 1 1 1 1 1 2 2 3 3 3 2 2 2 2 2 2 3 3 3 3 3 3 3 4 4 5 6 6 7 7 7 7 7 7 7 7 7 7 7 7 7 6 6 6 5 5 5 5
-3 -3 -3 -2 -2 -2 -2 -1 -1 -1 -1 -1 -1 -1 -1 -1 -1 -1 -1 -1 -1 -1 -1 -1 -1 -0 -0 0 0 0 0 1 0 -0 -1 -1 -0 -0 -0 0 1 1 1 1 1 2 2 2 2 2 1 1 2 2 2 2 3 3 3 3 3 3 5 5 6 6 7 7 7 7 7 7 7 7 7 7 6 6 6 5 5 5 4 4 4 4
-3 -3 -3 -3 -2 -2 -2 -1 -1 -1 -1 -1 -1 -1 -1 -1 -1 -1 -1 -1 -2 -2 -2 -1 -1 -1 -0 -0 -0 -0 -0 -0 -0 -1 -1 -1 -1 -1 -0 -0 0 0 0 1 1 1 1 2 2 2 2 2 1 1 2 2 2 2 2 2 2 3 4 5 6 6 6 6 6 6 6 6 6 6 6 5 5 5 4 4 4 4 4 4 4 3
-3 -3 -3 -3 -2 -2 -2 -1 -1 -1 -1 -1 -1 -1 -1 -1 -1 -1 -2 -2 -2 -2 -2 -2 -2 -1 -1 -1 -0 -0 -0 -0 -1 -1 -1 -2 -2 -1 -1 -1 -0 -0 -0 0 0 1 1 1 2 2 2 2 1 1 1 2 2 2 2 1 1 2 3 4 5 5 5 5 5 5 5 5 4 4 4 4 3 3 3 3 3 4 4 3 3 3
-3 -3 -3 -2 -2 -2 -1 -1 -1 -1 -1 -1 -1 -1 -1 -1 -1 -2 -2 -2 -2 -2 -2 -2 -2 -2 -2 -1 -1 -1 -1 -1 -1 -2 -2 -2 -2 -2 -2 -1 -1 -1 -1 -0 -0 0 1 1 2 2 2 2 1 1 1 1 1 1 1 1 0 1 2 3 4 4 4 4 4 4 3 3 3 3 3 2 2 2 2 2 3 3 3 3 2 2
-3 -3 -3 -2 -2 -2 -1 -1 -1 -1 -1 -1 -1 -1 -1 -2 -2 -2 -2 -2 -2 -2 -2 -2 -2 -2 -2 -2 -2 -2 -2 -2 -2 -2 -2 -3 -3 -2 -2 -2 -2 -2 -2 -1 -1 -0 0 1 1 2 2 1 1 0 0 0 0 1 1 0 0 1 2 3 3 3 3 3 3 3 2 2 2 2 1 1 1 2 2 2 2 2 2 2 2 1
-3 -3 -2 -2 -2 -2 -1 -1 -1 -1 -1 -1 -1 -1 -2 -2 -2 -2 -2 -2 -2 -2 -2 -2 -2 -2 -2 -3 -3 -3 -3 -3 -3 -3 -3 -3 -3 -3 -3 -2 -2 -2 -2 -2 -1 -1 -0 0 1 1 1 1 0 -0 -1 -1 -0 0 0 -0 -0 0 1 2 2 3 3 2 2 2 2 1 1 1 1 1 1 1 1 1 1 1 1 1 1 1
-3 -3 -2 -2 -2 -2 -2 -1 -1 -1 -1 -1 -2 -2 -2 -2 -2 -2 -2 -2 -2 -2 -3 -3 -2 -2 -2 -3 -3 -3 -3 -3 -3 -3 -3 -3 -3 -3 -3 -3 -3 -3 -3 -2 -2 -1 -1 -0 -0 0 0 0 -0 -1 -1 -1 -1 -1 -1 -1 -1 -0 0 1 1 2 2 2 2 1 1 1 1 1 1 1 1 1 1 1 1 1 1 1 1 1
-3 -3 -2 -2 -2 -2 -2 -2 -2 -2 -2 -2 -2 -2 -2 -2 -2 -2 -2 -2 -2 -2 -3 -3 -3 -3 -3 -3 -3 -3 -3 -3 -3 -3 -3 -3 -3 -4 -4 -4 -4 -3 -3 -3 -3 -2 -1 -1 -0 -0 -0 -0 -0 -1 -2 -1 -2 -2 -1 -1 -1 -1 -0 0 1 1 1 1 1 1 1 1 1 1 1 0 0 0 0 1 1 1 1 1 1 1
-3 -3 -3 -2 -2 -2 -2 -2 -2 -2 -2 -2 -2 -2 -2 -2 -2 -2 -2 -2 -2 -2 -3 -3 -3 -3 -3 -3 -3 -3 -3 -3 -3 -3 -3 -3 -4 -4 -5 -5 -4 -4 -4 -3 -3 -2 -2 -1 -0 0 0 -0 -0 -1 -1 -1 -2 -2 -1 -1 -2 -2 -1 -0 0 0 0 1 1 1 1 1 1 1 0 0 0 0 0 0 0 0 0 0 0 1
-3 -3 -3 -3 -3 -3 -3 -2 -2 -2 -2 -2 -2 -2 -2 -2 -2 -2 -2 -2 -2 -2 -2 -2 -3 -3 -3 -3 -3 -3 -3 -3 -3 -3 -4 -4 -5 -5 -5 -5 -5 -5 -4 -4 -3 -3 -2 -1 -1 0 1 0 0 -0 -1 -1 -1 -1 -1 -1 -2 -3 -2 -1 -0 -0 0 0 0 0 0 0 0 0 0 0 0 0 0 0 0 0 0 0 0 0
-3 -3 -3 -3 -3 -3 -3 -3 -3 -3 -3 -2 -2 -2 -2 -2 -2 -2 -2 -2 -2 -2 -2 -3 -3 -3 -3 -3 -3 -3 -3 -3 -3 -4 -4 -5 -5 -5 -5 -5 -5 -5 -5 -4 -3 -3 -2 -1 -1 0 0 0 0 -0 -1 -1 -1 -1 -2 -2 -3 -2 -2 -2 -1 -0 -0 -0 -0 -0 -0 -0 -0 -0 -0 -0 -0 -0 0 0 0 0 0 0 0 0
-4 -4 -3 -3 -3 -3 -3 -3 -3 -3 -3 -3 -2 -2 -2 -2 -2 -2 -2 -2 -2 -2 -3 -3 -3 -3 -3 -3 -3 -3 -3 -3 -4 -4 -5 -5 -5 -5 -5 -5 -6 -6 -5 -5 -4 -3 -2 -1 -1 -1 -0 -0 -0 -1 -1 -1 -2 -2 -3 -2 -2 -2 -2 -2 -2 -1 -1 -1 -1 -1 -1 -1 -1 -1 -0 -0 -0 -0 -0 -0 -0 -0 -0 -0 -0 -0
-4 -4 -4 -4 -4 -3 -3 -3 -3 -3 -3 -2 -2 -2 -2 -2 -2 -2 -2 -3 -3 -3 -3 -3 -3 -3 -3 -3 -2 -2 -3 -3 -4 -5 -5 -5 -5 -6 -6 -6 -6 -6 -6 -5 -4 -3 -3 -3 -3 -2 -2 -1 -1 -1 -1 -1 -2 -3 -3 -3 -2 -2 -2 -3 -3 -2 -2 -2 -2 -1 -1 -1 -1 -1 -1 -1 -0 -0 -0 -0 -0 -0 -0 -0 -0 -0
-4 -4 -4 -4 -4 -4 -3 -3 -3 -3 -3 -2 -2 -2 -2 -2 -2 -2 -3 -3 -3 -3 -3 -3 -3 -3 -3 -2 -2 -2 -3 -3 -4 -5 -5 -5 -5 -6 -6 -6 -6 -6 -6 -5 -5 -4 -4 -4 -3 -3 -2 -2 -1 -1 -2 -2 -2 -3 -4 -4 -4 -4 -4 -4 -3 -3 -3 -3 -2 -2 -2 -1 -1 -1 -1 -1 -1 -1 -1 -1 -1 -0 -0 0 0 -0
-4 -4 -4 -4 -4 -4 -3 -3 -3 -3 -3 -3 -2 -2 -2 -2 -3 -3 -3 -3 -3 -3 -3 -3 -3 -3 -2 -2 -2 -2 -3 -3 -4 -5 -5 -5 -5 -5 -6 -6 -6 -6 -5 -5 -5 -5 -5 -4 -4 -3 -3 -2 -2 -3 -3 -3 -3 -4 -4 -5 -5 -5 -4 -4 -4 -3 -3 -3 -3 -2 -2 -1 -1 -2 -3 -3 -3 -2 -1 -1 -1 -1 -0 0 0 0
-5 -4 -4 -4 -4 -4 -4 -3 -3 -3 -3 -3 -2 -2 -2 -3 -3 -3 -3 -3 -3 -3 -3 -3 -3 -3 -2 -2 -3 -3 -3 -4 -4 -4 -5 -5 -5 -5 -5 -5 -5 -5 -5 -5 -5 -5 -5 -5 -4 -4 -3 -3 -3 -4 -4 -4 -4 -4 -4 -4 -4 -4 -5 -5 -5 -4 -3 -3 -3 -2 -2 -2 -2 -3 -3 -3 -3 -3 -3 -2 -1 -1 -1 -0 0 0
-5 -5 -4 -4 -4 -4 -4 -3 -3 -3 -3 -3 -3 -2 -3 -3 -3 -3 -3 -3 -3 -4 -3 -3 -3 -3 -3 -3 -3 -3 -4 -4 -4 -5 -5 -5 -5 -5 -5 -5 -5 -5 -5 -5 -5 -5 -5 -5 -5 -5 -4 -4 -4 -4 -5 -5 -5 -4 -4 -4 -4 -5 -5 -6 -5 -5 -4 -3 -3 -2 -2 -2 -2 -3 -3 -3 -4 -4 -4 -3 -2 -1 -1 -1 -0 -0
-5 -5 -5 -4 -4 -4 -4 -4 -3 -3 -3 -3 -3 -3 -3 -3 -3 -3 -4 -4 -4 -4 -4 -3 -3 -3 -3 -3 -3 -4 -4 -4 -5 -5 -5 -5 -6 -6 -6 -5 -5 -5 -5 -5 -5 -5 -5 -5 -5 -5 -5 -5 -5 -5 -5 -5 -5 -5 -5 -5 -5 -5 -6 -6 -6 -5 -4 -4 -3 -2 -2 -2 -2 -3 -3 -3 -4 -4 -5 -4 -3 -2 -2 -1 -1 -1
-5 -5 -5 -4 -4 -4 -4 -4 -4 -3 -3 -3 -3 -3 -3 -3 -3 -4 -4 -4 -4 -4 -4 -4 -3 -3 -3 -3 -4 -4 -4 -5 -5 -5 -6 -6 -6 -6 -6 -6 -6 -5 -5 -5 -5 -5 -5 -5 -5 -5 -5 -6 -6 -6 -6 -6 -6 -6 -6 -6 -6 -6 -6 -6 -6 -5 -5 -4 -3 -3 -3 -3 -3 -2 -2 -3 -4 -4 -5 -5 -4 -4 -2 -2 -1 -1
-5 -5 -5 -4 -4 -4 -4 -4 -4 -4 -3 -3 -3 -3 -3 -4 -4 -4 -4 -4 -4 -4 -4 -4 -4 -3 -3 -3 -4 -4 -5 -5 -5 -5 -6 -6 -6 -6 -6 -6 -6 -5 -5 -5 -5 -5 -5 -5 -5 -5 -6 -6 -6 -6 -6 -6 -5 -6 -6 -6 -6 -6 -6 -6 -6 -6 -5 -4 -4 -3 -3 -3 -3 -3 -3 -3 -3 -3 -4 -4 -5 -5 -3 -2 -2 -1
Height
648 646 645 645 643 641 638 638 638 636 632 631 629 627 625 623 622 620 618 617 615 612 609 607 604 602 600 598 597 596 595 594 593 591 590 588 587 586 584 583 582 580 579 578 578 577 576 576 576 575 575 575 574 574 574 573 573 573 574 574 574 575 575 575 576 576 577 577 577 577 577 578 578 579 580 581 582 583 584 584 584 584 584 585 586 587
650 648 646 645 644 642 638 637 637 636 633 630 628 627 625 623 620 618 616 614 612 610 608 605 603 600 598 596 595 594 593 592 590 589 587 586 584 583 581 580 578 577 576 575 574 573 573 573 572 572 572 571 571 570 570 570 570 570 570 571 571 572 572 572 573 573 573 573 573 573 573 574 574 575 576 577 578 579 580 581 581 581 582 582 583 584
651 649 646 645 644 642 638 636 635 635 633 630 628 626 624 622 618 616 613 611 609 608 606 603 601 599 597 595 593 592 591 589 588 586 584 583 581 580 578 577 575 574 573 572 572 570 569 569 568 568 568 567 567 567 567 567 567 567 567 568 568 568 568 569 569 569 569 570 570 570 570 570 571 571 572 573 574 575 576 577 578 578 578 579 581 582
652 648 645 644 642 640 638 636 634 632 631 628 626 624 623 620 617 614 612 609 607 605 603 602 600 598 595 593 591 590 588 587 585 583 582 580 578 577 575 574 573 572 570 569 568 567 566 565 565 564 563 563 563 563 564 564 563 563 564 564 564 565 565 565 566 566 566 566 566 566 567 567 567 568 568 569 570 571 572 573 574 575 575 576 577 578
650 648 644 643 640 637 635 634 632 630 628 626 624 622 620 618 615 612 609 608 605 603 601 599 598 596 594 591 589 587 585 584 583 581 579 578 576 574 573 571 570 569 568 566 565 564 563 562 561 561 560 560 561 561 561 561 561 560 560 561 561 561 562 562 562 563 563 562 562 562 563 563 563 564 565 566 566 567 568 569 570 571 572 573 573 574
648 646 643 642 639 636 633 632 630 628 626 624 622 620 618 615 613 610 608 605 603 601 599 597 595 593 591 589 586 584 583 581 580 579 577 576 574 572 570 569 567 566 564 563 562 561 560 559 558 558 557 557 557 557 558 558 557 557 557 557 558 558 558 558 559 559 559 559 559 559 559 559 560 560 561 562 563 563 564 565 566 567 568 569 569 570
645 644 643 640 637 635 633 630 629 628 625 622 619 617 615 613 611 608 606 603 601 599 597 594 592 590 588 586 584 582 581 579 578 576 575 573 572 570 568 567 565 563 562 561 559 558 557 556 555 555 554 554 553 554 554 554 554 554 554 554 554 555 555 555 556 556 556 556 556 556 556 556 556 557 557 558 558 559 560 561 562 563 564 565 565 566
643 641 641 639 636 633 631 629 628 627 625 622 619 616 613 610 608 606 603 601 599 597 594 592 589 587 585 583 582 580 579 577 576 574 573 571 569 568 566 564 563 561 559 558 557 555 554 553 553 552 551 551 550 550 551 551 551 551 551 551 551 552 552 552 553 553 553 553 553 553 553 553 553 553 553 554 554 555 556 557 558 559 560 561 562 563
643 640 638 637 636 633 629 627 626 625 624 622 619 616 613 609 606 603 601 598 597 595 593 590 587 584 583 582 581 579 578 576 574 573 571 569 567 566 564 563 561 559 557 555 554 553 552 551 550 549 548 548 547 547 547 547 547 547 548 548 548 548 549 549 549 549 549 549 549 549 549 549 550 550 550 550 551 551 552 553 554 555 556 557 558 559
643 640 638 636 634 633 630 626 624 623 623 621 619 616 613 609 605 601 598 595 593 593 591 589 586 583 581 580 579 578 576 574 572 570 569 567 566 564 563 561 559 556 554 553 551 550 549 548 547 546 545 544 544 544 543 543 544 544 544 544 545 545 546 546 546 546 546 546 546 546 546 546 546 547 547 547 547 548 548 549 550 551 552 553 553 555
641 639 638 635 633 632 630 627 624 622 621 619 617 614 612 609 605 601 597 593 591 590 589 587 585 583 580 578 577 576 574 572 569 568 566 565 563 562 560 558 556 554 552 550 548 547 546 545 544 543 543 542 541 540 540 540 540 541 541 541 541 542 542 543 543 543 543 543 543 543 543 543 543 543 543 543 543 544 544 545 546 547 548 549 550 551
641 638 637 634 632 630 628 626 623 621 619 617 614 611 608 606 604 602 597 593 590 588 586 585 583 582 580 578 575 573 572 570 568 566 564 563 561 560 558 555 553 551 549 548 546 545 543 542 541 541 540 539 538 538 537 537 537 537 538 538 538 539 539 539 540 540 540 539 539 539 540 540 540 540 540 540 540 540 541 541 542 543 544 545 546 548
639 638 635 633 631 629 626 623 621 619 617 615 612 609 605 603 602 600 597 593 590 587 585 583 580 578 577 576 574 572 570 568 566 564 563 561 559 558 555 553 551 549 548 546 544 543 542 540 539 538 537 537 536 535 535 535 534 534 535 535 535 536 536 537 537 537 537 536 536 536 536 536 536 537 537 537 537 537 537 538 538 539 540 541 543 544
637 636 634 631 629 627 624 622 619 617 614 613 610 608 604 602 600 598 595 591 588 586 583 580 577 575 573 573 571 570 568 565 563 561 559 558 556 555 553 552 549 548 546 544 543 541 539 539 537 536 535 534 533 533 533 532 532 532 532 533 533 533 533 533 533 533 533 533 533 533 533 533 533 533 533 533 533 533 533 534 535 535 537 538 539 541
636 634 632 629 626 624 622 620 617 615 612 610 608 606 603 600 598 595 593 589 585 583 580 577 574 572 570 569 568 567 565 563 560 558 556 554 553 553 552 550 548 546 545 544 541 539 537 536 535 533 532 531 531 531 530 530 530 530 530 530 530 530 530 530 530 530 530 530 530 530 529 529 529 529 529 529 529 530 530 530 531 532 533 534 536 537
634 633 630 627 623 621 620 618 616 613 610 608 606 603 601 598 595 593 590 586 583 580 578 575 571 568 566 565 565 564 563 561 558 556 554 552 551 551 551 549 547 545 543 542 540 537 535 534 532 531 529 528 528 528 528 528 528 528 528 528 528 528 528 528 528 528 528 527 527 527 526 526 526 526 526 526 526 526 527 527 528 529 530 531 532 533
633 630 628 625 622 619 618 617 614 612 609 606 603 601 598 596 593 590 587 584 581 578 575 573 570 566 563 561 562 562 562 560 558 556 553 551 549 549 549 548 546 543 541 539 537 535 533 532 530 528 527 526 526 526 526 526 526 526 526 526 526 526 525 525 525 525 525 524 524 523 523 523 522 522 522 522 523 523 523 524 525 526 527 528 529 530
630 628 626 623 621 618 617 615 613 610 607 604 601 598 596 593 591 588 585 583 580 577 574 572 570 567 564 561 560 560 561 559 557 554 551 548 547 546 547 546 544 541 538 536 534 533 531 530 528 526 525 524 524 524 525 525 524 524 524 524 524 523 523 523 523 523 522 522 521 520 520 519 519 519 519 519 519 519 520 521 522 523 523 525 526 527
629 627 625 623 620 618 616 613 611 608 605 602 599 596 593 591 588 586 584 581 579 577 574 572 569 567 565 562 560 559 560 558 556 553 549 546 544 543 543 543 541 538 535 533 531 530 528 527 525 524 523 523 522 523 523 523 523 523 523 522 522 521 521 520 520 520 519 518 518 517 517 516 516 515 515 515 516 516 517 517 518 519 520 521 523 524
627 626 624 622 619 617 614 611 608 606 603 600 598 595 592 589 587 585 583 581 579 577 575 573 570 567 565 562 559 557 558 557 555 552 548 545 541 539 539 539 537 535 532 530 528 527 526 524 523 522 521 521 521 521 521 521 521 521 520 520 519 519 518 518 517 517 516 515 515 514 513 513 512 512 512 512 512 513 513 514 515 516 517 518 519 521
626 624 623 621 619 616 612 608 606 603 601 599 596 593 590 588 586 584 582 581 579 577 574 572 569 566 564 561 558 556 556 556 554 551 546 542 538 536 536 535 534 532 529 526 525 524 523 522 521 520 519 519 519 519 519 519 518 518 518 517 517 516 515 514 514 513 513 512 511 510 509 509 508 508 508 508 509 509 510 511 512 513 514 515 516 517
625 623 620 619 618 614 610 606 603 601 599 597 595 592 589 587 585 583 581 580 578 575 573 570 568 565 563 560 557 555 554 554 552 549 544 540 535 533 533 533 531 529 526 524 523 521 521 520 519 518 518 518 518 517 517 517 516 516 515 514 514 513 512 511 510 509 508 508 507 506 506 505 505 505 505 506 506 507 507 508 509 510 511 512 513 514
624 621 618 616 614 612 608 604 600 598 597 595 593 591 589 588 585 583 580 578 577 574 572 569 566 564 562 559 556 553 552 551 548 546 542 537 533 531 531 531 529 528 526 523 522 520 519 519 518 517 516 516 515 515 514 514 513 513 513 512 511 510 508 507 506 505 504 504 503 502 502 502 502 502 502 503 503 504 505 505 506 507 508 509 510 511
621 618 616 613 611 608 605 601 598 596 594 593 591 589 588 586 584 582 579 578 576 573 570 567 564 561 558 556 553 550 548 547 545 543 540 536 532 530 530 531 530 528 525 523 522 520 519 517 515 514 513 513 513 513 512 512 511 510 510 509 507 506 505 503 502 501 500 500 499 498 498 498 498 499 499 500 501 501 502 503 503 504 505 506 507 507
618 616 613 610 608 605 602 599 596 594 593 591 590 588 586 584 582 580 578 576 574 571 568 565 562 558 555 553 550 548 545 544 543 542 540 537 534 532 531 531 530 528 523 521 520 519 518 515 513 512 512 511 511 510 510 509 509 508 507 506 504 502 501 499 498 497 496 496 495 495 495 495 495 496 496 497 498 498 499 500 500 501 502 502 503 503
615 613 610 608 605 602 599 597 594 593 591 590 589 587 585 582 580 578 576 574 572 569 567 563 560 557 554 552 549 545 543 543 542 542 541 539 535 532 529 530 529 527 523 520 519 518 517 514 512 511 510 509 509 508 508 507 507 506 504 502 501 499 497 496 495 493 492 492 491 491 491 492 492 492 493 494 495 495 496 497 497 498 498 498 499 499
612 609 607 604 602 599 597 594 593 591 589 588 587 585 583 581 579 577 574 572 571 569 566 563 559 555 552 550 547 543 542 542 541 541 541 540 537 532 529 528 528 526 523 520 518 517 516 514 512 510 509 508 507 507 506 506 504 503 502 500 498 496 494 493 491 490 489 488 488 488 488 489 489 490 491 491 492 492 493 493 494 494 495 495 496 496
609 606 604 601 599 597 595 593 591 589 587 586 584 583 582 580 578 576 573 572 570 568 565 562 558 554 550 547 544 542 541 541 541 541 540 539 535 531 527 527 526 525 522 519 517 515 514 513 510 509 507 506 506 505 504 503 502 501 500 498 496 494 492 490 488 487 486 485 485 485 485 486 486 487 488 488 489 489 490 491 492 492 492 493 494 495
606 603 601 599 597 594 593 590 588 586 585 583 582 581 580 579 577 575 573 571 569 567 563 560 557 553 550 547 544 542 540 540 540 540 539 538 533 529 527 526 526 524 523 520 517 513 511 510 508 507 506 505 504 504 503 502 501 500 498 497 494 492 490 488 486 484 483 482 482 482 483 483 484 484 485 486 486 487 488 489 490 491 491 492 494 496
603 600 598 596 594 592 590 588 586 584 582 581 579 578 578 577 576 574 572 571 568 565 561 558 555 553 550 548 544 541 538 538 538 539 538 537 533 529 528 527 526 525 524 522 518 512 507 506 506 505 504 504 503 503 502 502 501 499 497 495 493 490 488 486 484 482 480 480 480 480 480 481 481 482 483 484 485 486 487 487 488 489 490 492 495 497
601 598 596 594 592 590 588 586 584 582 580 578 577 576 575 575 574 573 571 569 567 564 561 558 555 553 551 549 545 540 536 535 537 538 538 537 533 530 529 528 526 524 524 523 518 512 506 503 504 505 504 504 503 503 502 502 500 499 497 494 492 489 487 484 482 480 479 478 477 477 478 478 479 480 481 482 484 484 485 486 487 488 491 493 497 500
599 597 595 592 590 588 586 584 582 579 577 575 574 573 573 572 571 570 568 567 565 563 561 558 556 553 550 548 545 541 536 535 536 538 538 537 533 530 528 527 525 523 523 522 520 516 511 506 504 504 504 504 503 503 502 501 500 498 496 494 492 489 486 484 482 480 478 477 477 477 477 478 479 480 481 482 483 484 485 486 487 489 491 495 498 502
598 596 593 591 588 586 584 582 579 577 575 573 572 571 571 570 569 568 566 564 563 562 560 557 554 551 548 546 543 540 537 535 536 537 537 536 533 529 527 526 524 523 522 521 520 518 515 510 506 504 504 503 503 502 501 501 499 498 496 494 492 489 487 484 482 481 479 479 479 479 479 480 481 482 484 485 486 487 487 488 488 490 492 495 499 503
597 594 592 589 587 584 582 579 577 575 573 572 571 570 568 567 566 564 563 562 560 559 558 555 553 550 547 543 540 537 535 534 535 536 535 534 532 529 527 525 524 523 522 520 519 517 514 511 508 506 504 502 502 502 501 500 499 497 496 494 492 490 487 485 483 482 481 481 482 482 483 485 486 487 488 489 490 491 491 492 492 493 494 496 499 503
595 593 590 588 585 582 579 577 575 573 572 570 569 568 566 565 563 562 560 559 558 556 554 553 551 548 546 543 539 536 533 533 533 534 534 533 531 529 526 524 523 523 522 520 518 516 513 510 508 506 504 502 501 501 500 499 498 497 496 495 493 490 488 487 485 484 484 484 484 486 487 488 490 491 492 493 494 494 495 496 497 497 499 500 502 504
594 591 588 586 583 580 578 575 573 572 570 568 567 566 564 562 560 559 557 556 555 553 552 550 548 547 545 543 539 536 533 532 532 532 532 531 530 528 525 523 522 522 522 519 518 515 513 509 507 505 503 502 500 500 499 499 498 497 496 495 493 491 489 488 487 486 486 486 487 488 490 491 492 494 496 497 497 498 499 500 501 502 504 506 507 508
593 590 587 584 582 579 577 574 572 570 568 567 565 563 562 560 558 556 555 553 552 550 548 547 545 543 542 540 538 536 533 531 530 530 529 529 528 526 524 522 521 521 521 519 517 514 512 509 506 504 502 501 500 500 499 499 498 497 497 496 494 492 490 489 488 488 488 489 490 491 492 494 495 497 499 500 500 501 502 503 505 506 508 510 512 513
592 588 586 583 581 578 576 573 571 569 568 565 563 561 559 557 555 554 552 551 549 548 546 544 542 540 539 537 536 533 532 530 528 527 527 526 525 524 523 521 520 519 519 518 516 514 512 509 506 503 501 500 500 500 500 500 499 498 497 497 495 493 492 491 490 490 491 492 493 494 495 496 498 499 501 502 502 503 505 507 509 510 512 514 516 518
590 588 585 582 580 578 575 573 570 568 566 564 562 559 557 555 553 551 550 548 546 545 543 541 539 537 535 534 532 531 529 528 526 525 524 523 522 522 521 519 518 517 516 515 514 513 511 508 505 503 501 500 500 500 500 500 499 499 498 497 496 494 493 493 493 493 493 494 495 496 497 499 500 501 502 504 505 506 507 510 512 514 515 518 520 523
589 586 584 581 579 577 575 572 570 567 565 562 559 557 555 553 551 549 547 546 544 542 540 538 537 535 533 531 530 528 527 525 524 523 522 521 520 519 519 518 517 515 514 513 512 511 509 507 504 502 500 499 499 499 500 500 499 499 498 498 498 497 496 495 495 496 496 496 497 498 499 500 502 503 505 506 507 508 510 512 514 516 517 519 521 525
588 586 583 580 578 576 573 571 568 566 563 560 558 555 553 551 549 547 545 543 541 539 538 536 534 532 530 529 527 526 524 523 522 521 520 519 518 518 517 516 515 513 512 511 509 508 507 505 502 500 499 498 498 498 499 499 499 499 499 499 499 498 498 497 497 498 498 498 498 499 500 502 503 505 507 508 510 511 513 514 516 518 520 521 522 524
588 585 582 579 577 574 572 569 567 564 562 559 556 553 551 549 547 545 543 541 539 537 536 534 532 530 528 526 524 523 522 520 519 519 518 518 517 516 515 514 513 512 510 509 507 505 503 502 500 498 497 497 497 498 498 499 499 499 499 499 499 499 499 499 499 499 499 500 500 501 502 503 505 507 509 511 513 514 515 517 518 520 522 524 525 527
587 584 581 578 576 573 570 568 565 562 560 557 554 552 550 548 546 544 542 540 538 536 534 533 531 529 527 524 522 521 519 518 518 518 517 516 515 514 513 513 511 510 509 507 505 503 501 499 498 497 496 496 496 497 498 499 500 500 500 500 499 499 500 501 501 501 501 502 502 503 504 505 507 509 511 513 515 517 518 520 521 523 524 526 528 529
586 583 580 577 574 572 569 566 564 561 558 556 553 550 548 547 545 543 541 539 537 535 533 531 529 528 525 523 521 519 518 518 517 517 516 515 514 513 512 511 509 508 507 505 503 502 500 498 497 496 496 496 496 497 497 499 500 501 501 501 500 500 500 502 502 502 502 503 504 505 506 507 509 511 513 515 517 519 521 522 524 525 527 528 529 531
585 582 579 576 573 571 568 565 562 560 557 554 551 549 547 545 543 542 540 538 536 533 532 530 528 526 524 522 519 518 518 517 517 516 515 514 513 512 511 510 508 507 505 504 502 501 499 498 497 496 496 496 496 497 498 499 500 501 502 502 501 501 502 502 502 503 504 505 507 507 508 509 511 513 515 517 519 521 523 525 526 528 530 531 533 534
583 580 578 575 572 569 567 564 561 558 555 552 550 547 545 543 542 541 539 537 535 533 531 529 528 526 523 521 519 518 517 517 516 515 514 513 513 511 510 509 507 506 505 503 502 500 499 498 498 497 497 497 497 498 499 500 500 501 502 502 502 502 503 503 504 505 506 507 508 510 511 511 513 515 517 520 522 524 526 528 529 531 533 534 536 538
582 579 577 573 571 568 565 562 559 557 553 551 548 546 544 543 541 539 538 536 534 532 530 528 527 525 523 520 519 518 518 517 516 515 514 513 512 511 510 508 507 506 505 503 502 501 500 499 498 497 497 497 498 500 500 501 501 502 502 503 503 504 504 505 506 507 507 508 510 511 512 513 515 518 520 522 524 526 528 530 532 533 535 537 538 540
581 578 575 573 569 566 563 561 558 555 552 549 547 544 543 542 540 538 537 535 533 532 529 528 526 523 522 520 519 518 518 517 516 515 514 513 512 511 510 509 507 506 505 504 503 502 500 500 499 498 498 498 499 500 502 502 502 502 503 503 504 505 506 507 508 508 509 510 511 512 513 515 517 519 522 524 527 529 531 532 534 536 537 539 541 542
581 578 574 571 568 565 562 559 557 554 551 548 545 543 542 540 539 538 536 534 532 531 529 527 525 523 521 520 519 519 518 518 517 516 514 513 512 511 510 509 508 507 506 505 503 502 501 501 500 500 500 501 501 501 502 503 503 504 504 505 505 506 507 509 510 510 511 512 513 514 515 517 518 520 522 525 528 531 533 535 536 537 539 541 542 543
579 576 573 570 567 564 561 558 555 553 550 547 544 543 541 539 538 537 535 533 532 530 528 526 524 522 521 520 519 519 518 518 517 516 515 514 513 511 510 509 508 507 506 505 504 503 502 502 502 502 503 503 503 503 503 504 505 505 506 506 507 507 508 510 511 512 513 513 515 516 517 519 521 522 523 526 529 533 535 537 538 539 540 542 543 545
577 575 572 569 566 563 560 558 554 552 549 546 544 542 540 538 537 535 534 532 530 529 527 525 523 522 521 520 520 519 519 518 518 516 515 514 513 512 511 509 508 507 506 505 504 504 503 503 504 504 505 506 506 506 505 506 506 506 507 508 508 509 510 511 513 514 514 515 517 518 519 521 523 524 525 527 530 533 536 538 539 540 541 543 544 546
Wind_Speed
29 30 29 29 28 30 32 32 33 34 34 34 34 34 34 34 34 34 34 34 33 33 33 33 33 33 33 32 32 31 32 33 34 35 37 37 38 40 43 44 44 43 42 43 43 43 43 42 41 40 39 39 39 39 40 40 40 39 39 39 40 40 39 39 39 39 39 39 39 39 39 39 39 40 40 40 40 41 42 43 44 45 45 45 44 44
30 30 30 30 31 32 33 34 33 33 33 34 35 35 35 35 35 34 33 32 32 31 31 31 32 32 32 32 31 32 33 34 36 37 39 39 41 42 44 45 44 43 42 41 41 41 41 40 40 40 39 39 39 39 39 39 38 38 38 39 39 40 39 39 39 38 38 38 39 39 39 39 39 40 40 41 41 42 42 43 45 46 47 47 46 45
29 29 30 31 31 31 32 34 34 33 34 34 35 35 35 36 35 33 32 32 31 31 30 30 31 32 32 33 33 34 35 36 37 38 39 40 39 39 40 41 42 41 40 39 38 38 39 40 41 41 40 40 39 39 38 37 37 37 37 37 38 39 39 39 39 39 39 39 39 39 39 39 40 40 41 41 41 42 43 43 44 46 48 49 50 48
28 29 31 31 32 32 33 34 35 35 34 35 35 35 35 35 34 33 32 32 32 31 31 31 31 31 32 32 33 33 34 35 36 37 37 37 36 37 37 38 39 39 38 37 36 37 39 40 40 40 39 39 38 37 37 36 36 36 36 37 37 38 38 39 39 39 39 40 40 40 41 41 41 41 42 42 41 42 42 43 44 45 47 49 50 51
29 29 31 31 32 33 34 34 34 34 34 34 34 34 34 33 33 33 33 33 33 32 32 32 31 31 31 31 31 32 32 33 33 33 33 34 35 36 38 38 39 39 37 37 37 38 38 38 38 38 37 37 37 36 36 36 36 36 36 36 37 37 37 38 38 38 39 39 40 41 41 42 42 43 43 42 42 42 42 43 43 45 47 48 50 51
29 29 30 30 30 31 32 32 32 31 31 32 32 32 32 32 32 33 33 33 33 33 32 32 31 31 31 31 31 31 31 30 30 31 32 33 36 37 38 38 38 37 37 36 36 37 37 38 38 38 38 38 37 37 36 36 35 35 36 36 36 37 37 37 36 37 37 38 39 40 40 41 42 43 43 43 43 42 43 43 44 45 47 48 49 51
27 28 28 28 28 29 29 29 29 29 29 29 30 31 32 32 33 33 33 33 33 33 32 32 31 30 30 30 29 29 29 29 30 31 32 33 34 35 35 35 35 35 35 35 36 36 37 38 38 38 39 39 38 38 37 36 35 35 35 35 35 35 35 35 35 36 36 37 38 39 40 41 42 43 43 44 44 44 43 44 45 45 47 48 49 50
25 26 25 25 26 27 28 28 28 28 29 29 30 31 32 33 33 33 34 34 33 32 31 31 30 29 28 28 28 28 28 29 29 30 30 30 31 31 32 32 33 35 36 36 37 37 38 38 38 39 39 40 39 38 37 36 35 34 33 33 33 33 33 34 34 35 35 36 36 37 39 40 41 42 44 45 45 45 45 46 46 47 47 48 48 49
22 22 23 23 24 25 26 28 29 30 30 30 30 30 31 32 32 33 33 32 31 30 29 28 28 28 28 27 27 27 27 28 28 28 28 28 28 29 30 32 34 36 37 38 38 38 39 39 40 40 41 41 40 39 37 36 35 33 32 31 31 31 32 33 33 34 34 34 35 36 37 39 40 42 43 44 46 46 47 48 48 48 48 47 47 48
20 21 23 25 27 27 26 28 31 32 31 31 30 30 30 30 29 29 30 29 29 28 27 27 27 27 27 27 26 26 27 28 28 28 28 28 29 30 32 34 35 36 37 38 39 39 40 40 41 41 42 41 41 39 38 37 35 33 32 31 30 31 31 32 32 33 33 33 34 34 36 37 39 41 42 44 45 46 47 48 49 49 48 47 46 46
21 23 24 26 28 28 28 28 30 31 30 30 30 30 29 28 27 25 22 23 26 27 27 26 26 26 26 26 26 26 26 27 27 28 27 28 29 31 33 34 35 36 37 37 38 38 39 39 40 40 40 40 40 40 39 37 36 34 32 31 30 30 30 31 31 32 32 32 33 33 34 36 38 40 41 43 45 46 47 48 49 49 49 48 47 45
22 23 24 25 26 27 28 29 29 29 28 26 24 24 26 27 27 25 21 20 23 26 27 27 26 26 25 26 26 27 27 26 26 26 27 28 29 29 30 30 30 30 30 30 30 30 31 31 32 33 35 36 37 37 37 35 34 33 31 31 30 29 28 29 30 31 32 33 33 33 34 35 36 38 40 42 44 45 46 47 48 49 49 49 47 46
23 24 24 24 25 25 26 26 26 25 24 22 18 16 19 25 27 26 25 24 25 27 27 27 27 27 26 26 25 26 26 26 26 27 27 27 27 26 26 25 25 24 23 23 23 24 25 26 27 29 30 31 32 32 32 32 31 31 30 28 28 27 28 29 31 32 33 33 33 34 34 34 35 37 38 40 42 44 45 46 47 48 49 49 47 46
22 23 23 21 21 22 23 22 20 19 21 22 22 22 25 27 28 27 26 25 27 28 28 26 26 27 27 26 25 25 25 26 27 27 26 25 24 24 23 23 22 23 23 25 27 28 28 28 28 27 27 28 28 28 28 28 27 27 26 26 27 28 30 32 33 34 34 34 34 34 34 34 35 36 37 39 40 42 44 45 46 47 47 47 47 46
20 19 14 12 13 17 20 20 19 20 23 25 27 28 29 28 27 26 23 22 25 28 27 26 26 26 26 25 25 24 24 25 25 24 23 23 22 21 21 22 23 25 27 30 32 33 32 30 28 27 26 27 27 27 27 26 25 25 26 27 28 30 32 33 34 34 34 34 34 35 35 35 35 35 36 37 39 40 42 43 45 45 46 46 46 47
21 18 11 11 11 14 20 22 22 23 25 27 28 27 26 25 25 25 22 21 22 24 21 15 14 17 21 25 24 23 22 21 21 20 20 20 20 20 21 23 26 28 29 30 30 30 30 29 28 27 27 27 27 26 25 25 25 26 27 29 30 32 33 34 34 34 34 34 35 35 35 35 35 35 35 36 37 39 40 41 43 44 44 45 46 46
21 17 12 11 11 15 23 25 26 26 27 27 27 26 25 24 25 25 23 23 21 18 13 10 8 8 9 15 19 19 18 19 20 19 20 21 23 25 26 27 28 29 30 29 28 28 27 27 27 27 27 26 25 25 24 25 26 27 28 29 31 32 33 34 34 34 34 35 35 35 35 35 35 35 35 36 36 37 38 40 41 42 43 44 45 45
20 18 15 12 13 18 24 25 26 26 27 26 26 27 26 25 24 24 24 23 19 14 10 8 8 7 6 6 11 18 19 21 21 22 23 25 28 30 29 28 28 28 28 29 28 28 27 27 27 27 26 27 27 26 26 27 27 28 29 30 31 33 34 34 35 35 35 35 35 36 36 36 36 36 36 36 36 37 37 39 40 41 42 43 44 44
20 20 19 17 19 22 24 25 26 26 26 26 26 25 23 23 22 22 23 21 18 15 11 9 7 7 6 7 15 24 25 25 25 24 24 25 29 31 30 28 27 27 27 28 29 28 28 27 27 28 28 29 29 29 29 29 29 29 29 31 32 33 34 35 35 35 35 35 35 36 36 36 36 36 36 36 36 36 37 37 38 39 40 41 42 43
22 23 24 24 24 24 24 26 28 29 28 26 26 25 23 23 22 20 18 18 18 19 18 13 10 11 14 19 25 29 29 27 26 24 22 23 27 29 28 25 24 25 26 27 28 27 26 26 26 27 28 28 28 27 27 27 28 29 30 31 33 34 34 35 35 35 35 35 35 35 36 36 36 36 36 36 36 37 37 37 37 38 39 39 40 41
24 26 28 27 25 24 24 28 31 33 31 30 28 25 22 20 19 19 19 19 20 22 21 16 14 18 23 25 27 30 29 28 25 22 20 20 22 25 25 24 23 23 24 26 27 27 26 26 25 25 24 24 24 24 25 26 27 29 30 32 33 34 34 34 34 34 34 35 35 35 35 36 36 36 37 37 37 37 37 37 37 37 38 38 39 40
26 27 29 30 28 27 28 31 34 34 30 28 26 24 21 20 19 20 22 23 22 21 21 19 22 25 27 28 29 31 29 27 25 23 18 12 14 20 23 22 20 20 21 23 24 23 21 20 20 21 23 24 25 25 26 27 29 30 32 33 34 35 36 37 36 36 36 36 36 36 36 36 36 37 37 37 37 37 37 37 37 37 37 37 38 38
28 28 29 30 30 30 32 34 33 30 27 25 24 24 24 23 22 23 24 24 24 24 25 26 28 29 29 29 29 30 29 27 26 23 14 9 9 12 17 16 15 15 17 18 18 17 17 20 23 25 27 27 27 28 28 29 30 32 33 35 36 37 38 38 38 38 38 37 37 36 36 36 36 37 37 37 36 36 36 36 36 37 37 37 37 38
29 29 29 30 31 33 34 34 31 28 26 26 27 27 27 26 26 26 25 26 26 26 27 27 27 27 28 28 28 27 27 25 23 18 10 5 6 12 17 18 18 18 19 23 24 25 24 24 25 27 28 28 28 28 29 30 31 32 34 36 37 39 39 39 39 39 38 38 37 36 36 36 36 37 37 36 36 36 36 36 37 37 38 39 39 40
30 30 30 31 33 36 37 35 33 30 30 30 30 29 28 28 28 27 26 26 25 25 24 21 17 16 20 23 24 23 23 21 17 14 11 6 9 17 24 23 21 20 23 27 27 26 24 23 24 25 26 27 27 28 29 30 31 33 35 36 38 39 39 39 39 39 38 38 37 36 36 36 36 36 37 36 37 37 37 37 38 39 40 41 41 41
34 34 35 36 38 40 40 39 37 35 34 32 31 29 27 27 27 26 25 24 23 20 18 13 9 9 14 16 18 20 22 21 18 16 15 9 8 14 23 24 22 21 22 24 25 23 21 21 21 22 23 25 27 27 29 30 31 33 34 36 37 38 38 39 38 38 37 37 36 35 35 35 36 36 36 37 37 38 38 39 40 41 41 41 40 40
36 37 37 38 38 38 37 36 35 35 34 33 31 30 28 27 25 22 21 22 21 18 14 11 10 11 11 10 11 14 20 18 16 15 16 13 9 10 18 22 21 19 19 19 19 18 18 20 21 22 22 25 27 29 29 30 31 32 32 34 35 36 36 36 36 36 36 36 35 35 34 34 34 35 36 36 37 38 39 40 40 39 37 35 34 33
35 35 35 35 34 33 33 33 33 33 32 31 30 29 27 25 21 17 16 20 22 19 12 11 11 11 10 8 10 14 19 18 17 17 17 15 10 8 15 18 16 14 14 15 18 20 21 22 22 22 22 25 26 27 27 27 27 28 29 30 32 33 33 34 34 34 34 34 34 34 33 33 33 34 35 36 37 37 36 34 30 26 23 22 21 23
35 34 33 32 31 31 31 31 31 30 30 29 28 27 25 23 19 18 20 23 23 19 13 11 10 10 9 9 12 18 20 20 19 17 14 13 9 9 15 14 14 14 15 15 18 21 23 22 20 20 20 21 21 21 22 22 23 25 27 29 30 31 32 32 32 32 32 32 32 32 32 32 32 33 33 33 32 30 25 21 19 20 22 23 25 27
34 33 31 30 29 29 28 28 28 28 28 27 27 25 23 22 20 20 23 23 22 18 12 10 10 10 9 10 11 13 14 17 16 13 12 9 7 10 16 17 18 19 17 12 9 9 13 13 13 12 13 13 14 15 17 20 23 25 27 28 28 28 28 29 29 30 30 29 29 29 29 29 30 30 29 27 23 20 21 25 28 30 31 31 31 31
33 31 30 29 28 27 26 26 26 26 26 26 24 23 22 22 22 21 21 22 22 20 16 13 12 12 10 9 8 7 6 13 15 14 13 11 11 14 18 17 17 18 16 10 6 5 5 5 4 4 5 7 11 14 18 21 23 25 26 25 23 21 20 21 23 25 26 25 24 24 24 25 24 23 21 20 23 27 32 34 35 35 34 33 32 31
30 29 28 27 27 26 25 25 25 25 25 23 22 21 21 22 22 22 22 21 21 21 20 19 18 17 15 11 9 8 8 16 19 18 15 14 15 17 18 15 15 16 15 13 9 6 6 4 4 5 6 10 13 17 20 22 22 22 22 21 18 16 12 9 10 13 13 13 13 14 15 15 16 18 23 28 33 35 37 37 37 36 35 34 32 31
29 28 27 27 27 26 26 25 25 24 23 22 21 21 21 21 21 22 22 22 22 22 23 22 21 19 17 14 12 12 16 20 21 19 16 14 14 16 16 16 15 15 15 15 13 10 8 6 7 11 14 16 16 16 19 20 20 19 18 16 15 12 9 5 6 7 8 9 11 12 15 19 24 28 31 33 34 34 34 35 36 37 37 35 34 32
28 28 27 27 26 26 25 25 23 22 22 22 22 22 21 21 22 24 24 24 23 23 24 23 21 19 16 12 11 14 20 21 20 17 15 15 14 15 16 15 14 13 13 12 12 12 10 9 8 9 11 15 15 13 14 15 16 15 14 12 11 10 7 9 14 19 21 23 25 26 27 29 29 30 30 29 29 29 29 31 33 35 37 37 35 34
27 27 26 26 25 25 25 24 23 22 22 23 23 23 23 23 25 26 25 24 23 24 25 24 23 21 20 14 11 13 18 21 20 18 17 17 17 17 16 15 14 13 10 8 8 7 6 8 8 7 6 8 9 9 11 12 12 11 9 7 7 7 6 11 17 21 25 27 27 28 28 28 27 26 26 25 25 26 27 28 29 31 33 35 35 35
26 26 25 25 25 24 24 24 23 23 23 23 24 25 25 25 25 26 25 24 24 25 25 24 24 24 24 22 20 19 21 23 23 22 21 20 20 19 16 15 15 14 10 8 7 7 6 7 9 9 8 6 4 4 6 8 8 6 5 4 5 7 9 14 19 22 24 24 24 24 25 25 25 24 24 25 26 27 27 28 28 29 29 30 31 32
24 24 24 24 24 24 24 23 23 24 24 25 26 26 26 25 26 26 25 26 26 26 25 26 26 26 26 26 26 26 26 26 26 25 24 24 23 21 17 16 16 16 14 11 9 8 8 8 8 8 8 6 3 1 2 3 3 2 3 5 7 9 12 16 19 22 22 22 23 24 24 24 23 23 24 25 27 27 28 28 28 28 28 28 28 29
23 23 24 24 24 24 24 24 24 24 25 26 27 28 28 27 27 27 27 27 27 26 25 26 26 27 27 27 28 28 29 28 28 28 28 26 23 20 16 16 17 18 17 16 15 12 9 8 8 8 6 4 2 1 2 1 1 2 3 5 8 10 13 15 18 21 22 22 22 22 22 22 22 22 23 24 25 25 26 26 26 26 27 27 27 27
22 22 23 24 24 24 24 24 25 26 27 28 29 29 29 28 27 27 26 26 26 26 26 26 26 26 27 27 27 27 27 28 28 29 28 26 22 18 16 15 16 18 18 18 18 16 11 9 8 7 5 3 1 2 2 2 1 1 3 5 8 10 13 15 17 19 20 21 21 20 20 21 22 22 21 22 23 23 23 23 23 25 26 26 25 25
22 23 23 24 24 24 25 26 27 28 29 30 30 30 28 27 26 25 25 25 24 24 24 25 25 25 24 24 24 24 25 26 26 26 24 23 20 17 15 15 15 17 18 18 18 17 15 11 9 9 7 3 1 2 2 3 3 3 4 3 4 6 11 14 16 17 19 20 20 20 20 21 22 21 21 22 22 22 22 22 23 24 26 27 26 24
23 23 24 25 26 26 27 28 29 29 30 29 28 27 25 24 24 24 23 24 24 22 21 22 22 22 21 21 21 22 23 24 24 23 21 19 17 15 14 14 15 15 16 16 17 17 17 15 13 11 10 6 3 3 3 3 4 3 2 2 2 5 10 14 16 17 18 20 20 21 21 22 22 22 21 21 21 21 22 23 23 23 25 26 26 25
24 24 25 26 27 28 28 29 29 29 29 28 26 24 23 23 23 24 25 24 23 21 20 20 19 20 20 20 20 20 21 21 20 19 16 14 13 13 13 14 14 14 14 14 15 16 17 17 16 13 10 7 4 3 3 3 3 2 3 4 6 8 11 13 16 18 18 18 19 20 21 22 22 22 23 22 22 22 23 24 23 23 23 23 23 23
25 25 26 27 28 28 29 28 28 27 27 25 24 22 23 23 23 24 24 23 22 21 20 19 19 18 18 18 18 18 16 15 14 12 11 10 10 11 12 12 13 13 13 12 12 13 13 14 12 10 8 8 7 5 4 4 3 4 4 6 7 7 4 7 12 17 18 18 19 21 22 23 24 24 25 24 24 23 23 22 22 22 22 21 21 21
26 26 27 27 27 28 28 27 26 26 26 26 25 24 24 24 25 24 23 22 21 21 20 19 18 17 16 15 15 15 12 9 8 8 8 8 8 9 10 10 10 9 9 9 8 7 6 5 4 3 4 7 7 6 5 4 4 4 3 3 5 5 4 5 10 15 18 19 20 22 24 25 26 26 26 25 24 23 22 22 21 21 21 21 21 21
26 26 27 27 27 26 26 26 26 27 26 26 25 24 24 25 24 23 22 21 20 20 19 18 17 13 10 11 12 12 9 7 6 7 8 8 7 7 8 8 8 7 6 5 4 4 3 3 2 1 4 6 7 6 5 5 5 5 4 5 7 8 9 11 14 16 17 19 20 22 24 26 27 26 24 23 23 23 23 23 22 21 21 21 20 20
26 26 26 27 27 26 26 27 27 27 26 26 24 23 23 23 22 20 21 20 19 18 17 17 14 10 7 8 10 10 8 6 6 6 7 8 8 8 8 8 8 7 6 5 4 4 3 3 2 2 5 7 6 6 6 6 6 6 7 8 10 10 11 13 14 16 18 19 20 22 24 26 26 23 20 19 20 22 23 23 23 22 21 21 20 20
26 26 26 27 26 26 26 27 27 26 26 25 24 23 23 22 21 20 20 19 18 17 17 16 14 10 8 8 7 6 5 5 5 6 7 8 9 9 9 9 8 8 8 8 8 9 9 7 6 5 5 5 4 4 5 6 7 7 8 9 10 10 10 11 13 16 19 20 20 22 24 24 22 20 18 18 19 20 21 22 23 23 23 22 21 21
26 26 27 26 26 26 26 26 26 25 25 24 23 23 23 22 21 20 20 19 17 16 15 14 12 10 9 8 7 5 5 4 5 6 6 8 9 10 9 9 8 7 8 9 11 12 13 13 12 10 7 5 3 3 5 6 7 7 8 9 10 11 10 11 13 16 18 20 21 22 23 21 19 17 17 17 16 16 17 19 21 23 24 23 23 23
26 26 26 26 25 24 24 25 25 25 24 23 21 21 22 22 21 20 18 17 16 15 13 12 10 8 6 5 5 4 5 5 5 5 6 7 8 9 10 9 8 6 6 8 10 13 15 16 16 14 12 9 7 6 6 7 8 8 8 9 10 11 11 11 13 16 18 19 21 22 22 21 21 20 19 16 13 13 14 16 19 21 23 24 24 24
26 25 25 25 25 24 24 25 25 24 23 21 20 21 22 22 21 19 17 16 15 13 12 12 10 8 5 3 3 4 4 4 5 5 6 7 8 8 8 9 8 6 4 4 5 7 10 12 15 16 16 14 11 8 7 7 9 10 10 10 10 11 12 12 13 15 18 19 20 22 22 21 21 21 20 16 13 12 13 14 15 18 22 24 24 24
26 25 25 25 25 25 25 25 25 24 22 21 21 21 21 20 19 18 16 15 14 13 13 12 10 7 4 2 3 3 4 4 4 5 6 7 8 8 7 7 7 5 3 2 2 2 2 4 6 9 13 15 13 10 8 7 8 9 8 8 10 12 12 12 13 15 17 19 20 21 21 20 19 19 18 16 13 11 10 10 12 15 20 23 24 24
Wind_Direction
304 305 306 307 308 306 302 302 303 303 303 303 303 303 303 303 303 302 301 300 299 298 297 296 295 295 295 294 294 294 294 293 292 291 290 289 288 287 287 287 286 283 279 277 276 277 278 278 278 277 275 273 272 270 268 266 264 262 261 261 262 261 260 258 258 258 257 257 256 255 253 252 251 250 249 249 249 250 250 250 247 244 240 236 232 228
304 304 303 304 304 302 300 301 301 301 301 301 301 301 301 301 300 299 299 298 297 296 296 296 296 296 296 296 297 296 296 295 293 292 290 289 288 287 288 289 289 287 283 279 277 277 278 279 279 278 277 275 272 270 268 266 264 263 262 262 262 261 260 258 258 258 257 257 257 256 255 253 251 250 249 248 248 247 248 249 249 247 245 242 240 235
303 301 300 301 300 299 298 299 299 299 299 299 299 299 299 299 299 298 298 297 297 296 296 296 296 296 296 295 295 294 293 292 291 290 288 287 287 287 288 290 290 288 285 281 278 278 279 280 281 280 278 275 272 270 268 267 265 263 262 262 262 262 261 260 260 259 258 257 257 256 255 254 252 250 249 248 247 247 247 247 248 248 247 246 244 240
298 297 297 298 297 296 295 296 296 297 296 296 296 296 297 296 296 296 296 296 296 296 295 294 294 294 293 293 292 291 290 289 288 288 288 288 289 290 291 292 292 289 285 282 281 282 284 285 285 284 281 278 275 273 271 269 267 265 264 264 263 263 262 262 261 261 260 260 259 257 256 255 253 252 250 249 248 248 247 247 247 247 248 247 245 242
295 294 295 296 296 295 294 294 295 295 295 295 295 295 295 294 294 294 295 294 294 294 294 293 292 291 290 290 289 288 287 287 287 289 290 292 293 294 294 294 293 292 289 288 288 289 289 289 289 288 286 282 279 276 273 271 268 266 265 265 264 264 263 262 262 262 262 262 261 260 258 256 255 253 252 250 250 249 249 247 247 247 247 247 246 243
294 294 295 295 294 294 295 295 295 295 296 295 295 294 294 293 293 293 293 293 293 292 292 291 290 289 288 287 287 287 288 289 291 293 294 294 294 294 294 293 293 292 291 291 290 290 290 289 288 287 285 282 280 277 275 272 270 267 266 265 264 264 263 263 263 263 263 263 262 261 259 258 256 254 253 252 251 250 250 248 247 247 247 247 246 244
294 294 295 294 295 295 296 296 296 297 297 297 297 296 295 294 293 292 291 291 291 291 290 289 288 287 286 286 286 288 290 292 294 294 294 293 292 291 291 291 290 290 289 289 288 287 287 286 284 283 281 280 279 278 277 275 272 269 267 265 264 264 264 265 265 265 264 264 263 261 260 258 257 255 254 253 252 251 250 249 248 247 246 247 247 246
292 294 295 296 298 299 299 298 297 298 298 298 298 297 296 295 294 293 291 290 289 288 288 287 287 286 286 286 287 289 291 292 293 292 292 291 290 290 290 290 289 289 288 287 286 285 284 283 281 280 280 280 279 279 278 277 274 271 268 266 265 265 266 266 267 267 266 265 264 262 260 259 257 256 255 254 253 253 251 250 249 247 246 246 247 247
291 295 298 300 302 303 302 300 299 299 299 298 297 296 296 295 294 293 292 290 288 287 286 286 287 287 287 287 288 289 290 290 290 290 290 289 289 290 290 290 289 287 286 284 283 282 282 281 280 280 280 280 280 279 279 278 276 273 270 268 267 267 268 268 269 269 268 267 265 263 261 259 258 257 256 255 254 253 252 251 249 247 246 245 246 246
296 300 303 303 303 302 301 300 299 298 297 296 293 292 292 292 293 293 292 290 289 288 287 286 287 287 288 288 288 289 289 289 288 288 287 287 288 289 289 288 287 285 283 282 281 281 280 280 280 280 280 280 280 279 279 278 276 274 272 270 269 269 270 271 271 271 270 268 266 264 262 260 258 257 256 255 254 254 253 251 250 248 246 245 245 245
306 305 304 303 302 301 299 297 297 296 295 293 292 291 289 289 290 291 292 291 291 290 288 287 286 286 287 288 289 289 289 289 288 288 288 288 289 289 288 286 284 282 282 281 281 280 280 279 279 279 279 279 279 279 279 278 276 275 273 271 271 272 273 274 275 275 273 270 268 265 263 261 259 257 256 255 254 253 252 251 250 248 247 245 244 244
307 305 304 302 302 301 298 296 294 293 292 292 292 292 291 290 289 289 289 290 290 290 289 287 285 284 283 285 286 288 288 287 288 288 289 289 289 288 286 285 284 283 283 284 284 284 284 283 282 282 281 280 279 279 278 277 276 274 273 273 274 275 277 279 280 279 277 274 271 268 265 262 260 258 257 255 254 253 252 250 249 248 247 246 245 244
304 303 302 300 299 298 296 295 293 292 291 292 292 291 291 291 290 288 286 285 285 286 286 285 284 282 280 280 281 283 285 285 286 287 287 287 285 284 283 284 285 287 291 294 296 297 297 296 294 291 287 284 282 280 278 275 274 273 273 274 277 279 282 283 283 282 280 277 274 272 269 266 263 261 259 257 255 253 251 249 248 247 246 246 245 244
303 302 301 298 296 294 293 291 291 291 292 292 291 290 290 289 288 286 283 281 281 282 282 281 281 281 281 279 278 278 280 283 284 284 283 280 279 279 281 285 290 295 298 301 301 300 298 296 294 292 289 287 285 283 280 277 274 273 275 278 280 283 284 284 283 281 279 278 276 274 272 269 267 264 262 259 256 253 250 248 246 245 245 245 245 244
303 301 296 291 290 291 291 291 291 292 292 291 290 288 287 285 284 281 278 277 278 280 280 279 279 279 280 279 278 277 277 278 279 279 278 276 275 277 283 290 295 297 297 296 295 293 292 290 288 286 285 285 284 283 282 280 279 279 280 282 284 285 284 283 282 280 278 277 276 275 274 272 270 267 265 262 259 255 251 247 245 244 244 244 244 244
300 297 288 286 287 290 292 293 293 292 290 288 287 285 283 282 281 279 275 275 278 281 282 282 281 281 281 281 280 279 277 279 280 281 282 281 281 283 289 293 293 293 291 290 288 287 287 286 285 284 283 282 282 281 280 279 279 281 282 284 284 284 284 282 281 279 277 276 275 275 274 273 272 270 268 265 262 257 252 248 245 243 243 243 243 243
296 294 290 288 290 294 295 295 292 289 287 285 284 282 280 279 278 278 277 280 283 286 287 286 286 287 287 289 288 287 287 290 292 292 292 291 291 291 291 291 289 288 287 285 283 282 282 282 282 282 281 281 280 279 277 277 278 279 281 282 282 282 282 281 279 278 276 276 275 274 274 274 273 271 269 267 264 260 255 251 247 245 244 244 243 243
295 295 294 294 294 296 296 293 290 287 285 284 284 283 280 277 277 279 284 288 291 293 293 292 292 295 299 300 299 300 300 300 299 297 295 293 292 291 290 287 284 282 281 280 279 278 278 278 278 278 278 278 278 277 277 276 277 277 278 279 280 280 280 279 278 278 277 276 275 275 274 274 273 271 270 268 266 262 258 254 251 248 246 245 245 244
297 298 298 297 296 295 293 290 288 286 285 284 284 283 282 281 283 287 292 296 299 303 305 305 302 300 299 298 297 298 299 299 298 296 293 291 290 289 287 284 281 278 277 276 275 275 274 274 274 274 275 276 277 276 276 275 276 276 278 279 279 280 280 279 279 278 277 276 276 275 274 273 272 271 270 268 266 264 260 257 254 251 249 248 247 245
300 299 298 296 295 293 290 288 286 285 284 283 283 284 287 291 295 300 304 308 309 308 306 304 299 296 296 295 295 296 297 298 296 293 290 287 286 285 284 280 278 276 276 275 274 273 272 273 273 273 273 274 274 274 275 275 277 278 280 280 281 280 280 279 279 278 278 277 276 275 274 273 272 271 270 269 267 264 261 258 255 253 251 250 249 248
301 298 296 294 292 289 287 286 285 284 283 284 286 289 295 301 306 308 310 310 308 305 302 299 295 295 296 295 294 295 296 296 294 290 285 282 281 281 280 277 274 273 274 275 275 273 270 270 271 272 274 276 276 277 278 279 280 281 281 281 281 281 280 279 279 278 278 277 276 275 274 273 271 270 270 268 266 264 260 257 254 252 251 250 250 249
298 295 294 292 289 285 284 283 283 282 283 287 293 300 305 308 308 306 305 305 304 302 300 297 295 295 294 293 291 291 291 289 285 281 278 275 275 277 278 277 275 274 276 277 276 275 275 278 281 283 285 285 285 284 283 282 282 282 282 282 282 281 281 280 280 279 278 277 276 275 274 272 271 270 268 266 264 261 258 255 252 251 250 250 250 250
296 293 292 291 288 286 284 283 283 284 289 295 301 305 305 303 301 300 301 302 301 299 297 294 294 293 291 289 288 287 286 283 278 274 272 268 270 278 285 293 298 295 289 288 292 298 300 297 294 292 290 288 286 285 285 285 285 285 285 285 284 284 283 282 281 280 279 278 276 275 273 271 269 268 266 263 260 257 254 252 250 250 250 250 251 252
296 292 290 289 288 287 286 286 287 291 298 303 305 304 301 298 296 297 298 299 297 294 292 290 290 290 290 289 288 286 284 280 277 277 281 284 296 302 306 310 311 306 298 296 298 301 301 296 292 290 289 288 288 288 289 289 289 289 288 287 286 285 283 282 281 280 279 277 276 273 271 269 267 265 262 260 257 255 252 251 251 251 252 253 254 254
297 292 290 289 289 289 288 290 292 297 303 305 305 303 299 297 297 298 299 297 294 290 289 287 285 285 290 292 291 288 284 284 289 298 307 307 304 302 301 303 301 297 294 293 294 296 296 294 293 293 293 293 294 294 295 294 293 292 290 288 286 285 283 282 281 280 278 277 274 271 269 266 264 262 260 258 256 254 253 253 254 254 255 256 256 255
298 295 293 292 292 292 292 294 297 300 303 303 302 299 297 298 300 301 301 299 296 293 292 289 286 287 292 293 290 287 285 287 293 301 306 304 299 296 295 296 295 292 289 289 291 293 295 295 296 296 297 298 299 299 298 297 295 292 290 287 286 285 284 283 282 280 278 276 273 270 266 264 262 260 258 257 256 256 256 257 258 259 259 258 256 253
302 300 298 297 296 297 298 300 301 301 301 300 298 296 296 298 300 301 300 300 300 299 296 293 291 290 289 286 284 286 290 294 298 302 302 300 294 289 290 291 289 285 284 286 290 293 295 295 295 295 295 296 297 297 296 294 292 290 289 288 288 287 286 285 283 281 278 275 272 268 265 262 260 258 257 257 258 259 261 262 261 260 257 252 247 241
307 305 303 302 301 300 300 300 299 299 298 297 296 295 295 297 298 299 298 300 300 297 291 288 288 288 287 285 290 295 298 300 302 303 301 296 286 278 287 290 289 289 292 297 300 300 297 293 290 289 288 289 290 290 290 290 291 292 294 294 293 292 289 287 284 282 279 275 271 267 264 261 259 258 258 260 262 262 262 258 252 243 231 218 206 197
310 308 306 305 303 302 300 299 298 297 297 296 294 292 293 295 295 295 296 297 295 292 286 284 285 288 292 297 299 298 297 296 297 301 304 297 286 282 292 299 304 307 309 308 305 300 294 288 283 280 279 281 283 286 289 295 300 302 302 300 297 293 290 287 285 282 279 275 272 268 264 261 260 261 261 262 260 255 245 226 200 177 161 152 146 143
311 310 308 306 305 303 301 299 298 298 296 294 291 290 292 294 293 292 292 291 290 290 289 290 292 295 299 301 298 294 291 292 297 307 316 309 294 290 297 299 300 300 302 302 298 293 290 287 281 274 272 278 286 295 302 308 309 308 305 300 296 291 288 285 283 281 279 276 272 268 264 262 261 260 258 251 237 213 184 163 150 140 133 129 127 127
311 310 308 307 306 304 302 300 300 299 296 292 290 291 294 296 293 289 286 286 289 292 296 297 298 297 297 295 292 288 287 293 299 309 317 307 293 290 293 294 293 292 291 288 286 290 294 295 287 281 288 299 306 310 310 309 307 304 300 298 298 297 294 285 280 278 277 274 270 264 259 256 251 243 228 203 178 161 151 144 138 132 127 124 123 123
309 308 306 306 305 304 303 302 300 298 294 292 292 294 297 297 293 288 285 286 289 293 296 295 294 292 289 285 281 282 286 292 296 302 306 297 290 289 290 289 290 291 291 289 291 298 299 302 297 298 311 311 309 306 303 301 299 298 296 298 304 312 319 300 277 270 269 264 256 245 233 221 204 184 166 154 148 144 141 138 134 131 128 125 123 122
307 306 305 305 304 304 303 301 298 294 292 294 297 300 299 296 293 290 287 287 288 290 291 291 290 289 287 284 282 282 285 289 293 297 299 294 289 288 289 289 290 292 294 293 290 285 284 287 292 294 295 296 297 296 295 294 293 293 293 300 310 323 348 37 87 106 113 119 125 132 137 138 138 137 136 135 135 135 135 134 134 133 132 129 127 124
307 306 305 305 304 304 302 300 296 294 295 299 302 303 300 295 293 293 291 289 286 286 288 287 287 288 288 287 285 285 286 288 292 296 297 292 288 287 288 288 288 291 294 293 289 284 279 279 283 288 290 290 289 288 288 288 289 289 291 304 318 332 10 71 92 99 102 104 104 105 108 110 113 116 119 121 123 125 127 129 131 133 135 133 130 128
307 306 306 305 305 305 304 303 301 300 302 304 305 303 299 296 294 294 293 291 288 287 289 287 285 285 286 287 288 289 289 291 294 295 294 288 285 285 285 284 285 288 291 289 287 286 281 278 277 277 282 287 286 284 285 284 285 287 290 310 332 355 48 88 99 104 105 105 104 102 101 100 101 103 106 109 111 113 116 120 123 127 132 133 132 131
306 306 306 306 307 307 307 306 306 307 307 307 306 304 300 296 294 294 294 294 293 292 291 288 285 283 284 284 286 288 290 292 294 293 289 284 282 281 281 280 282 284 285 284 282 280 280 280 279 278 278 278 280 287 289 284 281 285 303 339 11 44 79 99 107 109 109 107 105 103 102 100 98 99 101 105 107 108 109 110 113 118 122 126 128 129
306 306 306 307 308 308 308 308 309 310 310 309 307 304 300 296 295 296 297 298 296 294 291 289 287 285 285 285 285 285 287 289 290 288 285 283 280 278 275 276 278 278 277 277 278 278 278 280 281 279 274 270 269 288 302 300 296 318 9 23 38 60 85 101 109 112 112 110 109 108 106 104 103 103 104 105 105 105 105 105 108 111 114 116 119 122
306 307 307 308 309 309 309 309 310 310 310 308 306 304 301 298 297 298 299 300 297 294 289 289 289 289 289 288 286 284 284 284 284 284 284 282 278 274 272 274 276 274 271 271 272 274 275 277 278 278 275 266 251 242 263 296 347 37 48 47 53 66 83 98 107 112 113 113 113 112 110 109 108 108 109 109 107 106 105 105 106 109 111 113 116 120
307 307 308 308 309 309 309 309 309 309 308 306 304 301 300 299 299 300 301 301 299 295 293 292 292 291 289 288 287 285 283 283 283 284 284 280 276 273 273 274 274 273 271 268 268 268 269 270 272 274 276 270 238 214 222 221 200 122 97 74 66 71 83 95 104 109 113 115 115 114 112 111 111 112 113 114 113 112 110 110 111 113 115 115 116 118
308 307 308 308 308 308 308 308 308 307 306 304 302 301 299 300 302 303 303 303 301 299 296 296 295 292 290 288 286 285 284 284 284 284 282 278 277 277 276 273 272 273 272 270 267 265 264 264 264 265 265 258 213 187 196 198 193 174 141 97 51 54 77 93 103 109 113 115 115 114 112 111 111 112 114 116 116 116 116 117 118 119 120 120 120 119
308 307 308 308 309 308 308 307 306 305 303 301 299 298 299 302 306 308 308 308 306 302 299 299 297 295 292 289 288 287 287 286 284 282 278 278 282 284 281 275 272 273 274 272 269 265 262 261 261 261 259 248 216 184 181 187 196 196 168 131 96 88 92 99 105 110 113 113 112 111 110 109 110 112 114 116 116 118 119 120 121 122 123 124 124 125
308 308 308 308 308 308 307 306 304 304 303 302 300 298 300 303 307 310 311 311 309 306 303 301 300 299 297 296 294 291 289 287 285 282 280 284 289 292 288 281 277 275 274 272 269 266 262 259 258 255 249 232 207 176 168 169 167 150 128 130 123 110 98 99 106 111 111 109 108 108 107 108 109 111 114 115 116 118 119 120 121 122 122 123 124 126
308 308 307 307 307 306 306 305 304 304 305 304 302 301 303 306 310 311 311 310 308 306 305 303 302 301 299 298 298 296 293 289 286 287 290 295 300 300 296 290 285 281 276 272 269 268 265 262 258 251 235 210 189 168 153 144 124 111 124 141 135 124 101 86 101 109 110 109 108 108 108 108 110 112 114 115 116 117 118 119 120 121 123 123 123 123
306 307 307 306 307 307 307 307 307 307 307 307 305 304 305 309 312 312 311 309 307 306 305 304 303 301 298 297 299 300 299 294 294 301 309 311 312 311 308 306 302 296 287 278 275 278 282 280 273 247 204 183 173 161 149 137 125 117 114 122 120 116 111 112 110 109 108 108 108 109 111 112 113 113 113 113 114 116 118 120 121 123 126 127 127 124
306 307 308 308 308 308 308 308 308 308 308 308 306 305 307 311 313 313 311 308 306 305 305 305 305 303 298 299 302 304 305 303 305 313 325 332 335 335 334 332 330 327 322 310 302 303 310 323 339 112 138 141 140 138 136 134 126 112 90 83 88 94 100 111 114 112 110 107 107 109 113 115 115 112 109 107 109 113 117 121 124 127 130 133 133 131
309 309 309 309 309 308 308 308 308 309 309 308 306 305 308 312 314 312 310 308 307 306 306 306 304 300 295 299 303 307 308 309 310 315 325 335 345 354 357 355 355 356 2 12 28 40 40 22 20 88 115 115 109 106 112 120 120 112 102 99 96 94 93 97 103 109 113 112 111 112 116 118 116 110 104 102 104 109 117 123 127 131 136 140 143 143
310 309 309 309 308 308 308 308 309 309 309 308 307 308 311 315 316 314 312 310 308 307 307 307 304 300 295 297 302 306 310 313 315 318 321 328 335 344 353 1 8 17 27 37 47 56 62 62 65 79 105 109 102 92 90 100 108 114 116 114 108 100 90 87 94 106 114 115 115 116 118 118 114 109 105 104 104 107 114 122 129 136 142 147 151 153
309 309 308 308 307 307 308 309 309 309 309 308 308 310 314 317 318 316 313 311 309 307 307 306 304 301 297 297 300 306 313 316 318 320 322 323 327 333 340 349 2 19 36 49 57 62 63 65 67 70 75 83 97 103 96 94 99 106 113 114 110 102 95 90 95 105 112 115 118 121 122 120 118 115 112 109 106 106 111 120 130 139 146 151 156 159
308 307 307 307 307 307 308 309 309 309 308 307 309 313 318 319 318 314 311 309 308 306 305 305 303 299 296 299 306 315 322 323 322 323 324 325 326 329 332 337 343 356 21 46 59 64 65 64 63 63 66 71 84 99 102 97 94 95 99 103 105 104 99 96 98 104 109 114 119 123 124 124 125 124 121 115 110 108 111 118 129 139 148 154 159 162
308 306 306 307 308 308 308 309 309 308 307 308 311 316 319 319 317 313 310 308 307 306 305 303 301 297 295 303 319 330 334 332 329 329 331 332 330 330 330 334 334 332 334 14 45 58 64 64 60 58 59 65 74 85 95 99 97 94 90 90 97 102 102 99 99 102 107 112 117 121 123 123 124 125 122 118 115 114 114 117 124 136 148 156 160 163
308 307 307 308 309 309 309 309 308 307 307 310 315 318 319 317 315 313 311 310 310 309 307 304 300 297 302 320 336 340 342 338 336 337 338 336 335 333 332 335 336 331 321 329 346 9 49 68 64 56 52 50 56 71 89 99 104 100 90 84 90 98 100 99 100 103 107 111 115 118 119 119 120 122 122 121 120 119 118 117 119 130 144 153 158 160